Regional Weather Roundup
Issued by NWS Upton, NY

Current Version | Previous Version | Text Only | Print | Product List | Glossary Off
Versions: 1 2 3 4 5 6 7 8 9 10 11 12 13 14 15 16 17 18 19 20 21 22 23 24 25 26 27
000 ASUS41 KOKX 230405 RWROKX Regional Weather Roundup National Weather Service New York NY 1200 AM EDT MON APR 23 2018 Note: "FAIR" indicates few or no clouds below 12,000 feet with no significant weather and/or obstructions to visibility. NYZ071-072-176-178-NJZ106-104-230500- New York City Metro Area CITY SKY/WX TMP DP RH WIND PRES REMARKS Central Park FAIR 51 29 42 CALM 30.42R Bronx Bot Gard N/A 48 28 46 SE1 30.41 Bronx Lehman C N/A 52 30 43 SE3 N/A LaGuardia Arpt FAIR 51 30 44 S7 30.39R Queens College N/A 48 34 57 S6 N/A Kennedy Intl FAIR 44 39 82 S6 30.42R Breezy Point N/A 46 N/A N/A SE2 N/A Brooklyn Coll N/A 48 37 66 NE3 N/A Staten Island N/A 48 28 46 SE2 N/A Newark/Liberty FAIR 51 27 39 SE5 30.39R Teterboro FAIR 47 29 49 CALM 30.39R $$ NYZ177-179-078>081-230500- Long Island New York CITY SKY/WX TMP DP RH WIND PRES REMARKS Jones Beach N/A 46 N/A N/A SW5 N/A Wantagh N/A 48 34 57 SW3 N/A Hempstead N/A 48 34 57 SW2 30.43 Matinecock Pt N/A 48 N/A N/A S3 N/A Farmingdale FAIR 46 30 53 W3 30.41R MacArthur/ISP FAIR 42 30 62 CALM 30.40R Stony Brook N/A 45 28 53 SW2 N/A Shirley FAIR 41 33 73 SW5 30.41R Mt Sinai Harb N/A 46 N/A N/A SW1 N/A Westhampton FAIR 30 21 69 CALM 30.42R East Hampton FAIR 33 23 67 CALM 30.40R Southold N/A 39 32 75 SW1 N/A Montauk N/A 47 36 65 W5 30.41R $$ NYZ052-065-067-230500- Hudson Valley CITY SKY/WX TMP DP RH WIND PRES REMARKS White Plains FAIR 42 29 59 CALM 30.38S Larchmont Harb N/A 46 N/A N/A N2 N/A Croton On Huds N/A 45 N/A N/A MISG N/A Somers N/A 46 27 46 E1 N/A Brewster N/A 41 25 52 NW1 N/A Newburgh NOT AVBL Montgomery FAIR 39 28 64 CALM 30.38R Otisville N/A 39 30 70 S1 N/A Warwick N/A 37 30 75 SE1 N/A Suffern N/A 45 25 45 SE1 N/A Poughkeepsie FAIR 39 25 57 CALM 30.38R Albany FAIR 45 18 34 N3 30.41R $$ NJZ001-105-106-008-010-013-015-019>022-104-230500- New Jersey CITY SKY/WX TMP DP RH WIND PRES REMARKS Newark/Liberty FAIR 51 27 39 SE5 30.39R Teterboro FAIR 47 29 49 CALM 30.39R Caldwell FAIR 46 31 55 CALM 30.40R Somerville FAIR 42 32 67 CALM 30.37R Linden NOT AVBL Perth Amboy N/A 48 N/A N/A W2 N/A Sussex FAIR 38 31 76 CALM 30.39S Andover N/A 41 32 70 CALM 30.38S Trenton FAIR 49 31 49 CALM 30.39R Millville FAIR 37 32 82 CALM 30.41R Atlantic City FAIR 46 40 79 CALM 30.41R Wrightstown FAIR 43 31 62 S5 30.38R Toms River FAIR 39 30 70 SW3 30.41R Belmar FAIR 45 26 47 S8 30.40R $$ PAZ047>061-062-071-230500- Eastern Pennsylvania CITY SKY/WX TMP DP RH WIND PRES REMARKS Philadelphia FAIR 50 34 54 S5 30.40S Allentown FAIR 47 28 47 CALM 30.38R Scranton FAIR 45 21 38 E6 30.38S $$ CTZ002-004>006-009-010-012-RIZ004-006-007-MAZ004-011-015-230500- Southern New England In CT CITY SKY/WX TMP DP RH WIND PRES REMARKS Bradley Intl FAIR 39 24 55 CALM 30.39R Hartford FAIR 43 31 62 CALM 30.39R Danbury FAIR 38 29 70 SW3 30.40R Wtrbury/Oxford FAIR 46 24 42 CALM 30.39S Norwalk Harbor N/A 46 N/A N/A SW5 N/A Bridgeport FAIR 48 31 51 W5 30.40R Meriden FAIR 40 32 73 CALM 30.39S New Haven FAIR 45 34 65 W3 30.39S Chester FAIR 48 25 40 W6 30.38S Groton FAIR 41 29 62 CALM 30.39R Willimantic FAIR 39 27 62 E3 30.40R In RI CITY SKY/WX TMP DP RH WIND PRES REMARKS Providence FAIR 45 35 68 W5 30.39R Block Island FAIR 45 30 55 W12 30.40R Westerly FAIR 44 30 57 CALM 30.39S In MA CITY SKY/WX TMP DP RH WIND PRES REMARKS Boston FAIR 50 24 36 N7 30.39R Worcester FAIR 47 13 25 N6 30.38R Westfield FAIR 36 27 69 CALM 30.39R Provincetown FAIR 42 35 76 SW8 30.38S Nantucket FAIR 40 38 93 SW8 30.39S WCI 34 $$ ANZ330-335-338-340-345-350-353-355-230500- Coastal Marine Observations STATION/POSITION TIME SKY/WX TEMP WIND PRES VSBY WAVE AIR SEA DIR/SP/G HT/PER (UTC) (F) (DEG/KT/KT) (MB) (MI) (FT/S) NY Harb Entrance 0350 46 45 180/ 10/ 12 1029.4 1/ 3 20 S Fire Island 0350 46 44 220/ 8/ 10 1029.6 1/ 3 23 SSW Montauk P 0350 44 43 280/ 8/ 8 1029.6 2/ 4 15 E Barnegat Li 0330 45 N/A 1/14 Hudson Canyon 0350 47 45 230/ 8/ 10 1029.3 1/14 Kings Point 0342 49 47 200/ 6/ 8 1030.2 Execution Rocks NOT AVBL Western LI Sound NOT AVBL Central LI Sound 0330 46 250/ 8/ 8 N/A 1 Robbins Reef 0342 51 140/ 4/ 5 1029.8 $$ >>>>>>>>>>>>>>>>>>>>>>>>>>>> KEY <<<<<<<<<<<<<<<<<<<<<<<<<<< > < > SKY/WX - Sky Condition/Present Weather < > TMP - Temperature in Fahrenheit < > DP - Dew Point in Fahrenheit < > RH - Relative Humidity in Percent < > WIND - Direction (from) and Speed in MPH < > PRES - Mean Sea Level Pressure (inches of Hg) < > WCI - Wind Chill Index < > VSB - Visibility in Miles < > HX - Heat Index < > TC - Temperature in Celsius < > VRB - Varibale Wind Direction < > < >>>>>>>>>>>>>>>>>>>>>>>>>>>> KEY <<<<<<<<<<<<<<<<<<<<<<<<<<<

USA.gov is the U.S. government's official web portal to all federal, state and local government web resources and services.